FW6892 Weather Reports


Display with metric or nautical units.
time (UTC)temp
F
wind
direction
speed
MPH
gust
MPH
rain 1hr
in
rain 24hr
in
rain mn
in
humidity
%
barometer
mb
20260506090508 50 265 0.0 3.0 0.00 0.00 0.00 77 1012.1
20260506090009 50 277 4.0 4.0 0.00 0.00 0.00 77 1012.1
20260506085508 50 271 2.0 8.0 0.00 0.00 0.00 76 1012.1
20260506085007 50 295 1.0 6.0 0.00 0.00 0.00 77 1012.1
20260506084508 50 265 3.0 5.0 0.00 0.00 0.00 77 1012.5
20260506084008 50 289 2.0 7.0 0.00 0.00 0.00 77 1012.5
20260506083508 50 244 4.0 6.0 0.00 0.00 0.00 77 1012.5
20260506083009 50 288 6.0 8.0 0.00 0.00 0.00 77 1012.8
20260506082508 50 335 7.0 7.0 0.00 0.00 0.00 77 1012.5
20260506081508 50 264 2.0 9.0 0.00 0.00 0.00 77 1012.5
20260506081008 50 273 4.0 4.0 0.00 0.00 0.00 77 1012.5
20260506080508 50 220 8.0 9.0 0.00 0.00 0.00 77 1012.5
20260506073507 50 237 4.0 14.0 0.00 0.00 0.00 77 1012.5
20260506073008 50 252 13.0 13.0 0.00 0.00 0.00 77 1012.5
20260506072507 50 230 5.0 7.0 0.00 0.00 0.00 77 1012.1
20260506072008 50 288 9.0 9.0 0.00 0.00 0.00 77 1012.1
20260506071508 50 229 7.0 14.0 0.00 0.00 0.00 77 1012.5
20260506071008 50 269 10.0 10.0 0.00 0.00 0.00 77 1012.1
20260506070508 50 226 4.0 13.0 0.00 0.00 0.00 77 1012.1
20260506062507 51 305 5.0 7.0 0.00 0.00 0.00 77 1011.8
20260506062008 51 265 8.0 10.0 0.00 0.00 0.00 77 1011.8
20260506061508 51 183 4.0 7.0 0.00 0.00 0.00 76 1011.5
20260506061008 52 254 2.0 9.0 0.00 0.00 0.00 76 1011.8
20260506060507 52 284 7.0 9.0 0.00 0.00 0.00 76 1011.8
20260506050507 53 243 5.0 9.0 0.00 0.00 0.00 76 1011.8
20260506045008 53 204 3.0 7.0 0.00 0.00 0.00 75 1011.5
20260506044008 53 67 1.0 6.0 0.00 0.00 0.00 75 1011.5
20260506043509 53 102 8.0 11.0 0.00 0.00 0.00 75 1011.1
20260506043008 54 238 6.0 10.0 0.00 0.00 0.00 74 1011.1
20260506042508 54 201 9.0 10.0 0.00 0.00 0.00 74 1011.1
20260506041507 54 263 7.0 10.0 0.00 0.00 0.00 74 1010.8
20260506041008 54 270 3.0 8.0 0.00 0.00 0.00 74 1010.8